{"data":{"norad_id":63477,"epoch":"2026-09-20T15:30:09.215136Z","epoch_age_seconds":143772,"freshness":"FRESH","line1":"1 63477U 25070T   26263.64593999  .00012531  00000+0  46400-3 0  9992","line2":"2 63477  42.9999 235.2110 0000558 298.3320  61.7476 15.27588229 82831","mean_motion":15.27588229,"eccentricity":5.58e-5,"inclination_deg":42.9999,"raan_deg":235.211,"arg_perigee_deg":298.332,"mean_anomaly_deg":61.7476,"bstar":0.000464,"rev_number":8283,"period_min":94.266240905945,"perigee_km":482.64160275468,"apogee_km":483.40730837312,"semimajor_km":6861.1614555639,"source":"CELESTRAK","updated_at":"2026-09-21T09:00:35.010724Z"}}